TimeCDT,TemperatureF,Dew PointF,Humidity,Sea Level PressureIn,VisibilityMPH,Wind Direction,Wind SpeedMPH,Gust SpeedMPH,PrecipitationIn,Events,Conditions,WindDirDegrees,DateUTC
12:15 AM,37.4,28.4,70,30.28,10.0,Calm,Calm,-,N/A,,Clear,0,2013-04-25 05:15:00
12:35 AM,37.4,28.4,70,30.27,10.0,Calm,Calm,-,N/A,,Clear,0,2013-04-25 05:35:00
12:55 AM,39.2,26.6,61,30.28,10.0,Calm,Calm,-,N/A,,Clear,0,2013-04-25 05:55:00
1:15 AM,37.4,24.8,60,30.27,10.0,SSW,3.5,-,N/A,,Clear,200,2013-04-25 06:15:00
1:35 AM,35.6,24.8,65,30.28,10.0,SSW,4.6,-,N/A,,Clear,200,2013-04-25 06:35:00
1:55 AM,35.6,24.8,65,30.28,10.0,SSW,3.5,-,N/A,,Clear,200,2013-04-25 06:55:00
2:15 AM,35.6,26.6,70,30.28,10.0,Calm,Calm,-,N/A,,Clear,0,2013-04-25 07:15:00
2:35 AM,35.6,24.8,65,30.28,10.0,SSW,4.6,-,N/A,,Clear,210,2013-04-25 07:35:00
2:55 AM,35.6,24.8,65,30.28,10.0,SSW,4.6,-,N/A,,Clear,210,2013-04-25 07:55:00
3:15 AM,35.6,24.8,65,30.28,10.0,SSW,4.6,-,N/A,,Clear,210,2013-04-25 08:15:00
3:35 AM,35.6,24.8,65,30.28,10.0,SSW,3.5,-,N/A,,Clear,210,2013-04-25 08:35:00
3:55 AM,35.6,24.8,65,30.28,10.0,South,3.5,-,N/A,,Clear,190,2013-04-25 08:55:00
4:15 AM,35.6,24.8,65,30.29,10.0,Calm,Calm,-,N/A,,Clear,0,2013-04-25 09:15:00
4:35 AM,35.6,24.8,65,30.30,10.0,SSW,4.6,-,N/A,,Clear,200,2013-04-25 09:35:00
4:55 AM,35.6,24.8,65,30.30,10.0,South,5.8,-,N/A,,Clear,190,2013-04-25 09:55:00
5:15 AM,35.6,24.8,65,30.30,10.0,South,4.6,-,N/A,,Clear,190,2013-04-25 10:15:00
5:35 AM,35.6,24.8,65,30.30,10.0,South,5.8,-,N/A,,Clear,190,2013-04-25 10:35:00
5:55 AM,35.6,24.8,65,30.30,10.0,South,5.8,-,N/A,,Clear,190,2013-04-25 10:55:00
6:15 AM,37.4,26.6,65,30.30,10.0,South,5.8,-,N/A,,Clear,190,2013-04-25 11:15:00
6:35 AM,37.4,26.6,65,30.31,10.0,SW,5.8,-,N/A,,Clear,220,2013-04-25 11:35:00
6:55 AM,39.2,26.6,61,30.32,10.0,SW,6.9,-,N/A,,Clear,220,2013-04-25 11:55:00
7:15 AM,39.2,28.4,65,30.33,10.0,SSW,6.9,-,N/A,,Clear,210,2013-04-25 12:15:00
7:35 AM,42.8,28.4,57,30.33,10.0,SSW,12.7,-,N/A,,Clear,200,2013-04-25 12:35:00
7:55 AM,42.8,30.2,61,30.32,10.0,SSW,11.5,-,N/A,,Clear,200,2013-04-25 12:55:00
8:15 AM,44.6,30.2,57,30.34,10.0,SSW,15.0,-,N/A,,Clear,210,2013-04-25 13:15:00
8:35 AM,46.4,30.2,53,30.34,10.0,SSW,12.7,-,N/A,,Clear,210,2013-04-25 13:35:00
8:55 AM,48.2,32.0,54,30.34,10.0,SW,15.0,-,N/A,,Clear,220,2013-04-25 13:55:00
9:15 AM,48.2,33.8,58,30.35,10.0,SW,13.8,-,N/A,,Clear,230,2013-04-25 14:15:00
9:35 AM,50.0,33.8,54,30.35,10.0,SW,15.0,-,N/A,,Clear,220,2013-04-25 14:35:00
9:55 AM,51.8,35.6,54,30.35,10.0,SW,13.8,-,N/A,,Clear,230,2013-04-25 14:55:00
10:15 AM,53.6,35.6,51,30.35,10.0,SW,12.7,-,N/A,,Clear,230,2013-04-25 15:15:00
10:35 AM,53.6,35.6,51,30.35,10.0,WSW,13.8,-,N/A,,Clear,240,2013-04-25 15:35:00
10:55 AM,55.4,33.8,44,30.35,10.0,SW,11.5,18.4,N/A,,Clear,220,2013-04-25 15:55:00
11:15 AM,55.4,35.6,47,30.35,10.0,SW,10.4,-,N/A,,Clear,230,2013-04-25 16:15:00
11:35 AM,57.2,35.6,44,30.35,10.0,WSW,11.5,-,N/A,,Clear,250,2013-04-25 16:35:00
11:55 AM,57.2,35.6,44,30.34,10.0,WSW,12.7,-,N/A,,Clear,240,2013-04-25 16:55:00
12:15 PM,59.0,35.6,42,30.34,10.0,WSW,13.8,19.6,N/A,,Clear,250,2013-04-25 17:15:00
12:35 PM,59.0,35.6,42,30.33,10.0,WNW,12.7,-,N/A,,Clear,290,2013-04-25 17:35:00
12:55 PM,59.0,35.6,42,30.33,10.0,West,12.7,19.6,N/A,,Partly Cloudy,260,2013-04-25 17:55:00
1:15 PM,60.8,37.4,42,30.33,10.0,West,9.2,-,N/A,,Partly Cloudy,260,2013-04-25 18:15:00
1:35 PM,60.8,39.2,45,30.33,10.0,West,8.1,-,N/A,,Mostly Cloudy,270,2013-04-25 18:35:00
1:55 PM,62.6,37.4,39,30.33,10.0,WNW,11.5,-,N/A,,Mostly Cloudy,300,2013-04-25 18:55:00
2:15 PM,62.6,37.4,39,30.33,10.0,West,12.7,-,N/A,,Mostly Cloudy,280,2013-04-25 19:15:00
2:35 PM,60.8,37.4,42,30.33,10.0,WNW,16.1,23.0,N/A,,Mostly Cloudy,300,2013-04-25 19:35:00
2:55 PM,62.6,37.4,39,30.32,10.0,WNW,13.8,21.9,N/A,,Mostly Cloudy,290,2013-04-25 19:55:00
3:15 PM,62.6,37.4,39,30.32,10.0,WNW,10.4,-,N/A,,Mostly Cloudy,300,2013-04-25 20:15:00
3:35 PM,60.8,37.4,42,30.32,10.0,NW,9.2,-,N/A,,Scattered Clouds,320,2013-04-25 20:35:00
3:55 PM,60.8,37.4,42,30.31,10.0,NNW,11.5,-,N/A,,Scattered Clouds,330,2013-04-25 20:55:00
4:15 PM,60.8,37.4,42,30.32,10.0,NW,10.4,-,N/A,,Scattered Clouds,320,2013-04-25 21:15:00
4:35 PM,62.6,35.6,37,30.32,10.0,WNW,12.7,18.4,N/A,,Scattered Clouds,300,2013-04-25 21:35:00
4:55 PM,60.8,35.6,39,30.32,10.0,WNW,8.1,-,N/A,,Clear,300,2013-04-25 21:55:00
5:15 PM,60.8,35.6,39,30.32,10.0,NW,10.4,-,N/A,,Clear,310,2013-04-25 22:15:00
5:35 PM,60.8,33.8,36,30.32,10.0,NW,13.8,17.3,N/A,,Clear,320,2013-04-25 22:35:00
5:55 PM,60.8,33.8,36,30.32,10.0,WNW,10.4,-,N/A,,Clear,300,2013-04-25 22:55:00
6:15 PM,60.8,33.8,36,30.32,10.0,NW,10.4,-,N/A,,Clear,310,2013-04-25 23:15:00
6:35 PM,57.2,33.8,41,30.32,10.0,NNW,6.9,-,N/A,,Clear,330,2013-04-25 23:35:00
6:55 PM,57.2,32.0,38,30.32,10.0,North,5.8,-,N/A,,Clear,350,2013-04-25 23:55:00
7:15 PM,57.2,32.0,38,30.33,10.0,NNW,4.6,-,N/A,,Clear,340,2013-04-26 00:15:00
7:35 PM,55.4,32.0,41,30.33,10.0,North,3.5,-,N/A,,Clear,350,2013-04-26 00:35:00
7:55 PM,53.6,32.0,44,30.33,10.0,NNE,4.6,-,N/A,,Clear,20,2013-04-26 00:55:00
8:15 PM,53.6,32.0,44,30.34,10.0,NNE,3.5,-,N/A,,Clear,20,2013-04-26 01:15:00
8:35 PM,53.6,30.2,41,30.34,10.0,Calm,Calm,-,N/A,,Clear,0,2013-04-26 01:35:00
8:55 PM,48.2,33.8,58,30.35,10.0,Calm,Calm,-,N/A,,Clear,0,2013-04-26 01:55:00
9:15 PM,46.4,32.0,57,30.36,10.0,Calm,Calm,-,N/A,,Clear,0,2013-04-26 02:15:00
9:35 PM,46.4,32.0,57,30.37,10.0,Calm,Calm,-,N/A,,Clear,0,2013-04-26 02:35:00
9:55 PM,44.6,32.0,61,30.37,10.0,Calm,Calm,-,N/A,,Clear,0,2013-04-26 02:55:00
10:15 PM,44.6,32.0,61,30.37,10.0,Calm,Calm,-,N/A,,Clear,0,2013-04-26 03:15:00
10:35 PM,46.4,30.2,53,30.37,10.0,ENE,6.9,-,N/A,,Clear,70,2013-04-26 03:35:00
10:55 PM,44.6,30.2,57,30.37,10.0,East,4.6,-,N/A,,Clear,80,2013-04-26 03:55:00
11:15 PM,46.4,30.2,53,30.37,10.0,ESE,3.5,-,N/A,,Clear,110,2013-04-26 04:15:00
11:35 PM,48.2,30.2,50,30.36,10.0,East,3.5,-,N/A,,Clear,90,2013-04-26 04:35:00
11:55 PM,46.4,30.2,53,30.36,10.0,East,3.5,-,N/A,,Clear,100,2013-04-26 04:55:00